Regional Weather Roundup
Issued by NWS

Home | Current Version | Previous Version | Graphics & Text | Print | Product List | Glossary On
Versions: 1 2 3 4 5 6 7 8 9 10 11 12 13 14 15 16 17 18 19 20 21 22 23 24 25 26 27 28 29 30 31 32 33 34 35 36 37 38 39 40 41 42 43 44 45 46 47 48 49 50
000
ASUS43 KFSD 240302
RWRSD

WEATHER ROUNDUP FOR SOUTH DAKOTA
NATIONAL WEATHER SERVICE SIOUX FALLS SD
1000 PM CDT WED JUL 23 2014

NOTE: "FAIR" INDICATES FEW OR NO CLOUDS BELOW 12,000 FEET WITH NO
SIGNIFICANT WEATHER AND/OR OBSTRUCTIONS TO VISIBILITY.


SDZ001>005-009-010-012>017-240400-
NORTHWEST AND NORTH CENTRAL SOUTH DAKOTA

CITY           SKY/WX    TMP DP  RH WIND       PRES   REMARKS
BUFFALO          N/A     74  60  61 E16       29.96F
FAITH            N/A     74  55  51 SE20G28   30.05S
MOBRIDGE       CLEAR     72  57  59 SE12      30.08F
$$

SDZ012>016-024>037-041>051-057-063-072>074-240400-
SOUTHWEST AND SOUTH CENTRAL SOUTH DAKOTA

CITY           SKY/WX    TMP DP  RH WIND       PRES   REMARKS
RAPID CTY ARPT MOCLDY    74  66  76 S6        30.05F
PIERRE         PTCLDY    74  57  55 SE12      30.07S
CUSTER         MOCLDY    70  63  78 E6        30.21F
ELLSWORTH AFB  CLOUDY    75  67  77 S7        30.05F
PHILIP         CLEAR     78  57  48 E8        30.05S
PINE RIDGE     MOCLDY    77  62  59 SE8       30.07S
WINNER         FAIR      75  55  49 SE13      30.12R
$$

SDZ004>011-016>023-039-040-240400-
NORTHEAST SOUTH DAKOTA

CITY           SKY/WX    TMP DP  RH WIND       PRES   REMARKS
ABERDEEN       CLEAR     68  59  73 E7        30.15S
WATERTOWN      CLEAR     70  54  56 E5        30.18S
SISSETON         N/A     66  61  84 SE3       30.16S
$$

SDZ017-020-022-023-036>040-048>070-240400-
SOUTHEAST SOUTH DAKOTA

CITY           SKY/WX    TMP DP  RH WIND       PRES   REMARKS
SIOUX FALLS    PTCLDY    70  58  65 E6        30.17S
HURON          CLEAR     71  56  58 SE9       30.14R
CHAMBERLAIN    CLEAR     72  57  60 SE10      30.13R
MITCHELL       CLEAR     71  59  65 SE9       30.15S
YANKTON        CLEAR     70  63  78 E5        30.16S
$$

ABBREVIATIONS USED IN REMARKS
   TC - TEMPERATURE IN CELSIUS
  WCI - WIND CHILL INDEX
   HX - HEAT INDEX
  VSB - VISIBILITY




USA.gov is the U.S. government's official web portal to all federal, state and local government web resources and services.